Flag for U.S.A. Weather past 2 weeks in New York, New York, U.S.A.

Now
83 °F

Sunny.


Feels Like: 85 °F
Forecast: 75 / 93 °F
Wind: No wind

Location: New York City - Central Park

Current Time: Jul 29, 2015 at 9:44:46 AM

Latest Report: Jul 29, 2015 at 8:51 AM


Visibility: 9 mi

Pressure: 29.99 "Hg

Humidity: 55%

Dew point: 65 °F

Location of New YorkLocation

Historic Weather in New York — Graph

°F

New York temperature yesterday

Maximum temperature yesterday: 95 °F (at 2:51 PM)
Minimum temperature yesterday: 75 °F (at 4:51 AM)
Average temperature yesterday: 84 °F

Past Weeks' High & Low Weather Summary

 TemperatureHumidityPressure
High95 °F (Jul 28, 2:51 PM)91% (Jul 14, 2:03 PM)30.11 "Hg (Jul 14, 2:03 PM)
Low64 °F (Jul 16, 6:51 AM)26% (Jul 24, 1:51 PM)29.56 "Hg (Jul 14, 6:51 PM)
Average79 °F56%29.87 "Hg
* Reported Jul 14 7:51 AM — Jul 29 7:51 AM, New York, Weather by CustomWeather, © 2015

Note: Actual official high and low records may vary slightly from our data, if they occured in-between our weather recording intervals... More about our weather records

Advertising

New York weather history for previous 24 hours

 ConditionsComfort  
Time TempWeatherWind HumidityBarometerVisibility
7:51 AM
Wed, Jul 29
80 °FSunny.No wind60%29.98 "Hg9 mi
6:51 AM79 °FSunny.6 mph65%29.97 "Hg9 mi
5:51 AM79 °FClear.3 mph65%29.96 "Hg9 mi
4:51 AM80 °FClear.5 mph62%29.95 "Hg10 mi
3:51 AM79 °FClear.3 mph65%29.94 "Hg9 mi
2:51 AM80 °FClear.3 mph64%29.95 "Hg9 mi
1:51 AM80 °FClear.No wind69%29.97 "Hg9 mi
12:51 AM81 °FClear.No wind67%29.98 "Hg9 mi
11:51 PM
Tue, Jul 28
83 °FClear.5 mph63%29.97 "Hg9 mi
10:51 PM83 °FClear.5 mph63%29.97 "Hg10 mi
9:51 PM84 °FClear.6 mph59%29.97 "Hg10 mi
8:51 PM84 °FPassing clouds.No wind48%29.96 "Hg10 mi
7:51 PM85 °FSunny.No wind48%29.95 "Hg10 mi
6:51 PM86 °FSunny.5 mph48%29.94 "Hg10 mi
5:51 PM88 °FPassing clouds.No wind48%29.93 "Hg9 mi
4:51 PM93 °FPassing clouds.6 mph32%29.94 "Hg10 mi
3:51 PM93 °FPassing clouds.3 mph33%29.93 "Hg10 mi
2:51 PM95 °FSunny.6 mph31%29.94 "Hg10 mi
1:51 PM94 °FSunny.No wind32%29.96 "Hg10 mi
12:51 PM92 °FSunny.5 mph35%29.96 "Hg10 mi
11:51 AM87 °FSunny.No wind46%29.98 "Hg10 mi
10:51 AM86 °FSunny.No wind46%29.98 "Hg10 mi
9:51 AM82 °FSunny.No wind60%29.99 "Hg9 mi
Weather by CustomWeather, © 2015

See weather overviewHow to use our weather pages